Preview of NWS' New Version of Forecast
This preview is not operational and should not be used for support decisions.

Regional Weather Roundup (RWR)

Issued by National Weather Service (NWS)

                            
000
ASCA42 TJSJ 180610
RWRPR 
PUERTO RICO/U.S. VIRGIN ISLANDS HOURLY WEATHER ROUNDUP
NATIONAL WEATHER SERVICE SAN JUAN PR
200 AM AST WED SEP 18 2019

PRZ001>002-007>008-010-180700-
PUERTO RICO
  
CITY           SKY/WX    TMP DP  RH WIND       PRES   REMARKS
SAN JUAN LMM   PTCLDY    82  75  78 SE3       29.89F                  
CEIBA          CLEAR     82  75  78 SE6       29.90F                  
$$

VIZ001>002-180700-
U.S. VIRGIN ISLANDS
  
CITY           SKY/WX    TMP DP  RH WIND       PRES   REMARKS
CHARLOTTE AMA  PTCLDY    82  73  74 E8        29.88F                  
CHRISTIANSTED  PTCLDY    81  73  78 E10       29.88F                  
$$

HOURLY WEATHER ROUNDUP FOR THE NEWS MEDIA
  
CITY           SKY/WX    TMP DP  RH WIND       PRES   REMARKS
ORLANDO        FAIR      78  73  84 NE3       29.95F                  
NEW YORK       FAIR      60  55  83 N7        30.17S                  
NEWARK         FAIR      59  45  59 N7        30.17R                  
CHICAGO        FAIR      66  62  87 CALM      30.13R                  
HARTFORD       CLOUDY    55  52  89 CALM      30.17S                  
BOSTON         CLOUDY    62  49  62 NE16      30.20S                  
DALLAS         CLEAR     82  69  64 S5        29.92F                  
PHILADELPHIA   FAIR      61  53  75 CALM      30.16S                  
LOS ANGELES    PTCLDY    71  59  65 CALM      29.90S                  
WASHINGTON DC  FAIR      59  53  80 NW5       30.14R